Overview Statistics Trail Chart Weather Telemetry Raw packets
 

This is the latest recevied weather packets stored in our database for station/object NI4CE-10. If no packets are shown the sender has not sent any weather packets the latest 10 day(s).

<< 3 4 5 6 7 8 9 >>
Time Temp. Humidity Pressure Rain* Wind** Luminosity Snow
1788632779 41.11° C 100% 1015.1 hPa 0 mm - - -
1788632557 41.11° C 100% 1015.1 hPa 0 mm - - -
1788632412 42.78° C 100% 1015.3 hPa 0 mm - - -
1788632257 42.78° C 100% 1015.3 hPa 0 mm - - -
1788632130 42.22° C 100% 1015.3 hPa 0 mm - - -
1788631957 42.22° C 100% 1015.3 hPa 0 mm - - -
1788631871 47.22° C 100% 1015.3 hPa 0 mm - - -
1788631657 47.22° C 100% 1015.3 hPa 0 mm - - -
1788631598 48.89° C 100% 1015.2 hPa 0 mm - - -
1788631357 48.89° C 100% 1015.2 hPa 0 mm - - -
1788631057 48.33° C 100% 1015.4 hPa 0 mm - - -
1788630929 45.56° C 100% 1015.4 hPa 0 mm - - -
1788630757 45.56° C 100% 1015.4 hPa 0 mm - - -
1788630457 45.56° C 100% 1015.4 hPa 0 mm - - -
1788630157 50.56° C 100% 1015.3 hPa 0 mm - - -
1788630027 52.22° C 100% 1015.5 hPa 0 mm - - -
1788629857 52.22° C 100% 1015.5 hPa 0 mm - - -
1788629731 53.33° C 100% 1015.6 hPa 0 mm - - -
1788629560 53.33° C 100% 1015.6 hPa 0 mm - - -
1788629257 53.89° C 100% 1015.6 hPa 0 mm - - -
1788629195 53.33° C 100% 1015.7 hPa 0 mm - - -
1788628957 53.33° C 100% 1015.7 hPa 0 mm - - -
1788628657 52.22° C 100% 1015.8 hPa 0 mm - - -
1788628357 52.22° C 100% 1016 hPa 0 mm - - -
1788628182 48.33° C 100% 1016 hPa 0 mm - - -

* Rain latest hour (hover to see other rain measurements)
** Current wind speed in m/s (hover to see current wind gust speed)